Dewpoint
61 60 60 60 61 62 63 63 64 63 63 62 61 61 60 60 59 59 59 59 59 59 58 59 59 59 58 58 58 59 59 59 59 60 61 62 63 63 63 62 60 59 59 59 59 59 60 60 58 55 53 54 55 55 56 57 58 58 58 58 59 59 59 60 60 59 60 60 59 59 59 59 59 60 60 60 61 61 60 59 59 59 59 59 59 58 57 57 58 59 59 59 59 59 58 58 58 58 58 58 57 57 57
61 61 61 62 63 64 65 65 64 63 63 64 65 64 62 61 60 60 60 59 59 59 58 58 58 58 58 58 59 59 59 59 59 59 60 62 63 63 63 62 61 59 59 59 59 60 61 59 56 53 52 54 55 55 55 56 57 58 58 58 59 59 60 60 60 59 59 59 59 59 59 59 59 60 60 60 60 61 61 60 59 59 58 58 58 58 57 56 56 57 57 58 59 58 58 58 58 58 58 57 57 57 56
61 62 63 64 65 67 66 66 64 63 63 65 67 67 64 62 61 60 60 60 59 59 57 57 57 57 58 59 59 59 59 59 59 59 60 61 63 63 63 62 61 60 59 59 59 59 61 60 56 53 52 53 54 54 55 55 56 58 58 58 59 59 60 60 60 59 59 59 58 58 58 59 59 59 59 59 59 60 61 60 60 59 58 58 58 58 57 57 56 56 56 57 57 58 58 58 58 58 58 57 57 56 56
62 64 64 65 65 66 66 66 65 63 63 65 67 67 64 62 61 61 60 60 59 58 57 57 57 57 58 59 59 59 59 59 59 59 60 61 63 63 63 62 61 60 59 59 59 59 59 58 55 53 52 54 54 54 54 55 56 57 58 58 59 59 61 60 60 60 59 58 58 57 57 57 57 57 57 58 58 59 60 60 60 59 59 58 58 58 57 57 57 56 56 56 57 57 57 58 58 58 58 58 57 56 56
63 64 65 65 64 64 65 65 64 63 63 64 64 64 62 62 62 61 60 59 59 58 58 57 56 57 58 59 59 59 59 59 59 59 60 62 63 63 63 62 61 60 59 59 59 59 58 57 55 53 52 54 54 55 54 55 56 57 57 57 59 60 61 61 60 60 59 59 58 57 57 56 56 56 56 56 56 57 59 60 60 60 59 58 58 58 57 57 56 56 56 56 56 57 57 57 57 57 58 57 57 56 56
63 64 65 64 64 64 64 65 64 64 62 62 61 62 62 62 61 61 60 59 59 58 58 57 56 56 58 59 59 59 59 59 59 60 61 62 63 63 63 62 61 60 60 59 59 59 59 56 54 52 52 53 54 54 54 54 55 55 55 56 58 60 60 61 61 61 60 59 58 57 57 57 56 56 55 55 55 56 57 58 59 59 59 59 58 57 57 57 57 57 57 57 56 56 56 56 56 56 57 57 57 56 56
63 63 63 64 64 64 63 63 63 62 60 60 60 61 61 61 61 61 60 59 59 59 58 57 56 56 58 59 59 59 59 59 59 60 61 62 63 63 63 62 61 60 60 59 59 60 60 56 54 53 52 53 53 53 53 53 54 54 54 56 59 61 60 61 62 62 61 60 59 59 58 58 57 57 56 56 55 55 56 57 57 58 59 58 58 57 57 57 57 57 57 57 56 56 56 56 56 55 55 56 56 56 57
64 63 62 63 64 64 63 62 62 61 59 59 59 59 59 60 60 60 60 60 59 59 58 58 56 56 57 59 59 60 59 59 59 60 61 62 63 63 62 62 61 60 59 59 59 60 61 57 54 53 51 53 54 54 53 52 53 54 54 56 59 61 60 62 62 62 61 60 59 59 59 58 58 58 57 57 56 56 56 56 56 56 57 57 57 57 56 57 57 57 57 56 56 56 55 55 55 55 55 55 55 56 57
64 64 62 62 63 64 64 63 62 61 60 59 58 58 58 59 59 59 59 59 59 58 58 57 57 56 57 59 59 60 59 59 59 60 61 62 62 62 62 62 61 60 59 59 59 59 61 57 55 52 52 53 54 54 54 51 52 54 54 56 58 60 60 61 62 62 62 61 60 59 59 59 58 58 58 58 57 57 56 56 55 55 55 56 56 56 56 56 57 57 56 56 56 55 55 55 55 54 54 54 55 55 56
64 63 62 62 62 63 63 63 62 61 59 58 57 57 57 57 58 58 59 59 58 57 57 57 57 57 58 59 59 59 59 59 59 60 61 61 62 62 62 62 61 61 60 59 59 59 61 57 55 52 52 51 53 55 55 53 54 56 56 58 59 60 60 61 61 61 61 60 60 59 59 58 58 57 57 58 58 58 57 57 56 55 55 55 55 55 55 56 56 56 56 56 55 55 55 55 55 54 54 54 54 54 55
63 63 62 62 62 62 62 62 62 61 59 59 57 57 56 56 57 58 58 58 57 57 56 57 57 58 58 59 59 59 59 59 59 60 61 61 61 62 62 62 61 61 60 60 60 60 61 57 54 52 51 51 53 55 54 54 55 57 58 61 61 60 60 60 60 60 60 59 59 58 58 58 57 57 57 57 57 57 57 57 56 56 55 55 54 54 54 55 55 56 56 56 56 56 55 55 55 55 55 55 54 54 54
63 63 62 62 62 62 62 62 62 61 60 59 58 57 56 56 57 58 58 58 57 56 56 57 58 58 59 59 60 60 60 59 60 60 61 61 61 61 62 62 61 61 61 61 61 61 60 56 53 50 49 49 52 54 54 54 56 57 59 62 62 60 59 60 60 59 59 58 57 57 57 57 57 56 56 56 56 56 56 56 56 56 55 55 54 54 54 54 55 55 56 56 56 56 56 56 56 55 55 55 55 55 54
64 63 62 62 62 63 63 63 62 62 61 59 58 57 56 57 57 58 58 57 57 57 57 57 58 59 59 60 60 60 60 60 60 60 61 61 61 61 62 61 61 61 62 62 61 60 59 54 50 48 47 49 51 54 55 55 57 59 61 62 62 61 60 60 59 59 58 58 57 57 56 56 56 56 56 55 55 55 55 56 55 55 55 55 54 54 54 54 55 55 56 56 57 57 57 56 56 56 56 56 55 55 55
64 64 64 64 64 63 63 63 63 62 61 60 59 57 57 57 57 58 58 57 57 57 57 58 59 59 60 61 61 60 60 60 60 60 61 61 61 61 61 61 62 62 62 62 59 56 54 51 49 47 47 49 52 55 57 58 59 61 63 63 62 62 61 60 60 59 59 58 57 57 56 56 56 56 56 55 55 55 55 55 55 55 55 55 55 55 54 55 55 55 55 56 57 57 57 57 57 57 56 56 56 56 55
65 65 64 65 65 64 64 64 63 62 61 60 59 58 57 58 58 58 58 57 57 58 59 59 60 60 60 61 61 61 60 60 60 60 60 61 61 61 61 61 62 62 62 60 56 52 49 48 47 47 48 49 53 56 57 58 60 62 63 63 63 63 62 61 60 59 59 58 57 57 56 56 56 56 55 55 55 55 55 55 55 55 55 55 55 55 55 55 55 55 55 55 56 57 57 58 58 57 57 56 56 56 56
65 65 65 65 65 65 64 64 63 63 61 60 59 58 58 58 58 59 59 58 59 59 61 61 60 60 59 59 60 60 61 62 62 61 61 61 61 61 61 62 62 62 60 57 54 50 47 46 46 47 49 50 53 55 55 58 61 63 63 63 63 63 62 61 60 60 59 59 58 57 57 57 56 56 55 55 55 55 55 55 55 55 56 56 56 56 56 56 55 55 55 55 55 56 57 57 58 58 58 57 57 57 57
64 64 65 65 65 65 65 64 63 62 61 60 59 59 58 59 59 59 59 59 59 60 62 62 61 60 59 59 59 59 60 60 61 62 62 62 62 62 62 62 62 60 57 54 51 49 47 46 46 46 49 50 53 55 55 59 61 63 63 63 63 62 62 61 61 60 59 59 58 58 58 57 57 57 56 56 55 55 55 55 55 55 55 56 56 56 57 57 57 56 56 56 56 56 56 57 57 58 58 58 58 58 57
64 64 65 65 65 65 64 64 63 62 61 60 59 59 59 59 59 59 60 59 59 60 62 62 61 60 59 58 58 58 56 55 56 58 60 61 62 63 63 62 61 59 55 53 50 49 47 44 45 46 49 50 53 55 55 59 62 63 63 62 62 62 62 62 61 61 60 59 59 59 58 58 57 57 57 57 56 56 56 55 55 55 55 56 56 56 57 57 57 57 57 57 57 57 57 57 58 58 58 58 59 58 58
63 64 64 64 64 64 64 63 63 62 61 60 60 59 59 59 59 60 60 59 59 60 62 62 62 61 60 59 58 56 52 51 52 54 56 59 60 62 62 61 59 57 55 53 50 48 46 42 43 46 49 50 53 55 57 60 62 63 62 62 62 62 62 62 61 61 60 60 60 59 59 59 58 58 58 58 58 58 57 57 57 57 56 56 56 56 56 57 57 57 57 58 58 58 58 58 58 58 59 59 59 59 59
62 63 64 64 64 64 64 63 63 62 62 62 62 61 61 61 61 61 61 60 60 60 61 62 62 62 61 60 57 54 50 49 50 51 55 56 58 59 61 60 59 57 55 53 50 47 43 39 41 45 48 50 53 55 57 60 62 63 62 62 62 62 62 62 61 61 61 60 60 60 60 59 59 59 59 59 59 59 58 58 58 58 57 57 57 57 57 57 57 56 56 57 58 58 58 58 59 59 59 59 59 59 59
59 60 61 62 63 64 64 63 63 63 63 63 63 62 61 62 62 63 63 62 62 62 62 62 62 61 61 59 56 52 50 48 47 49 52 54 56 58 59 59 58 56 54 52 49 45 40 37 39 43 46 48 51 55 58 61 63 64 63 62 62 62 62 62 62 61 61 60 60 60 60 60 60 60 60 59 59 59 59 59 59 59 58 58 58 58 57 57 57 57 57 57 57 58 58 58 59 59 59 59 59 60 60
58 58 58 58 59 61 62 61 61 61 62 64 62 60 58 60 61 62 63 62 62 62 62 62 61 59 58 56 54 52 49 47 46 46 48 50 54 57 59 58 56 55 52 50 47 43 39 38 39 41 43 45 48 52 57 61 63 64 63 62 62 62 62 62 62 62 61 61 61 61 61 61 61 61 61 60 60 60 60 60 60 59 59 59 59 59 58 58 58 58 58 58 58 58 58 58 58 59 59 59 59 60 60
58 57 56 56 57 58 59 59 59 59 60 63 62 59 56 57 57 59 61 60 59 59 60 60 59 58 56 54 52 50 48 46 45 44 44 46 49 53 56 55 54 52 50 48 46 42 40 40 40 40 41 42 44 48 54 61 64 64 64 63 62 62 62 63 63 63 62 62 62 61 61 61 61 61 61 61 61 60 60 60 60 60 60 60 60 59 59 59 59 59 59 59 58 58 58 58 58 58 59 59 59 59 60
58 57 57 56 56 56 57 56 57 57 58 61 60 59 56 55 55 55 58 58 57 56 56 57 58 56 54 51 50 49 47 46 45 44 43 43 45 46 50 50 50 49 48 46 45 43 41 41 41 41 40 40 41 44 49 61 64 63 64 63 62 62 62 62 63 63 63 63 63 62 62 62 62 61 61 61 61 61 61 61 61 61 61 61 61 60 60 60 59 59 59 59 59 59 59 59 59 59 59 59 59 59 59
58 58 57 56 56 56 56 55 55 55 56 59 59 58 57 55 53 53 55 55 55 53 52 54 55 55 53 50 49 48 47 45 44 43 41 41 41 42 43 44 44 44 45 44 43 43 43 42 42 41 40 39 39 42 48 61 64 63 63 63 63 62 62 62 62 63 63 63 63 63 63 63 62 62 62 62 61 61 61 60 60 60 60 61 61 61 61 61 61 60 60 59 59 59 59 59 59 59 59 59 59 59 59
58 58 57 56 55 55 55 55 55 55 55 57 59 58 57 55 53 52 53 53 52 51 50 50 51 51 51 50 49 48 46 45 43 42 41 40 39 39 39 39 40 40 41 41 42 43 44 43 42 41 40 39 38 41 48 60 64 63 63 64 63 63 62 62 62 62 63 63 63 63 63 63 62 62 62 62 62 62 61 60 60 60 59 60 60 61 61 62 61 61 61 60 60 60 60 60 60 60 60 60 60 60 60
58 57 57 56 55 55 55 55 55 55 55 56 58 58 57 55 53 52 51 51 50 50 49 49 48 48 48 49 49 47 45 44 43 42 40 39 38 38 37 37 37 38 38 39 41 42 43 43 43 42 41 39 38 39 43 56 61 63 63 63 64 63 63 62 62 62 63 63 63 63 63 63 62 62 62 62 62 62 62 61 60 59 59 59 59 60 61 61 62 62 62 61 61 61 60 60 60 61 61 61 61 61 60
57 57 57 56 55 55 54 54 55 55 55 55 56 56 56 54 53 51 50 50 49 49 48 48 47 47 47 48 48 47 45 44 43 42 41 40 38 37 37 37 37 37 37 38 39 41 41 42 42 41 40 39 38 38 40 51 58 62 62 62 63 63 63 63 63 63 63 63 63 63 62 62 62 62 61 62 62 62 62 61 60 59 58 58 58 59 59 61 62 62 62 62 62 61 61 61 61 61 61 61 61 61 61
57 57 57 56 55 55 54 54 54 55 55 55 55 55 55 54 52 51 50 50 49 48 48 47 47 47 47 48 48 48 46 45 44 43 42 41 40 38 37 37 36 36 36 37 38 39 40 41 41 41 40 39 37 37 38 47 55 59 59 61 62 62 62 62 63 63 63 63 63 62 61 61 61 60 60 60 60 60 60 60 59 59 58 57 57 58 59 59 61 62 62 62 62 62 62 62 62 62 62 62 62 62 62
57 57 57 56 55 55 54 54 54 54 55 54 54 54 55 54 53 50 49 49 49 49 48 47 47 47 47 48 49 49 49 48 46 45 43 42 41 40 38 37 37 36 35 36 37 38 39 39 40 40 39 38 37 37 37 44 51 57 58 59 59 60 61 61 61 61 61 61 61 60 59 59 58 58 58 58 58 58 59 59 58 58 57 57 57 57 58 59 59 60 61 62 62 63 63 63 63 63 63 63 63 62 62
57 57 56 56 55 55 54 54 54 54 54 54 54 54 54 54 53 51 49 49 50 50 49 48 47 47 47 48 48 49 50 49 48 46 45 43 42 41 40 39 37 36 35 35 36 37 38 39 39 39 39 38 37 37 37 41 48 54 56 57 58 59 59 59 59 59 59 59 58 58 57 56 56 55 56 56 56 56 56 57 57 57 57 57 57 57 58 58 59 59 60 61 62 62 63 63 63 63 63 63 63 62 62
57 57 56 56 55 54 54 54 54 54 54 54 53 53 53 53 52 51 50 49 49 50 50 49 48 48 47 48 48 49 49 50 49 47 46 46 44 43 42 41 39 37 36 36 36 37 38 39 39 39 39 38 38 37 37 39 43 48 55 56 56 57 58 58 58 57 57 56 56 55 55 55 55 55 55 55 56 56 56 56 56 57 58 58 58 58 58 58 59 59 59 60 61 62 62 62 63 63 63 63 63 62 62
57 57 56 55 55 54 54 54 54 54 54 53 53 53 53 53 52 51 50 50 50 50 50 50 50 49 48 48 48 49 50 49 49 49 48 47 46 45 44 42 41 39 38 37 37 37 37 38 39 39 39 38 38 38 38 38 39 42 52 55 56 56 57 57 58 57 56 56 56 55 55 55 55 55 55 55 56 57 57 57 57 58 59 59 59 59 59 59 59 59 59 59 60 61 61 62 62 62 62 62 62 62 62
57 57 56 55 55 54 54 54 53 54 53 53 53 53 53 52 52 51 51 50 50 50 50 50 50 50 49 49 49 49 50 50 50 50 50 50 48 47 45 44 42 41 40 38 37 37 37 37 38 39 39 38 38 37 37 37 37 39 45 51 55 55 56 57 57 57 57 56 56 56 56 56 56 56 57 57 57 58 58 59 59 59 59 60 60 60 60 60 60 59 59 59 59 60 60 61 61 61 62 62 61 61 61
57 57 56 55 55 54 54 53 53 53 53 53 53 52 52 52 52 51 51 51 51 51 51 51 50 50 50 49 50 50 50 51 51 51 51 51 50 48 46 45 44 43 42 40 39 38 37 37 38 38 39 38 38 37 37 37 37 38 41 49 53 55 56 56 57 57 58 57 57 57 58 57 57 57 58 58 59 59 59 60 60 60 60 60 61 61 61 60 60 60 60 60 59 59 60 60 60 60 61 61 61 61 61
57 57 56 55 55 54 54 54 53 53 53 53 53 52 52 52 51 51 51 52 52 52 52 52 51 51 50 50 50 50 51 51 51 51 51 51 50 49 47 46 44 43 43 41 40 39 38 37 38 38 39 39 38 38 37 37 37 38 39 44 49 53 55 55 55 56 57 58 58 58 58 58 59 59 59 59 59 59 60 60 61 61 60 61 61 61 61 61 61 61 60 60 60 60 60 60 60 60 60 60 60 60 60
57 57 56 55 55 54 53 53 53 53 53 53 53 52 52 52 52 51 51 52 52 53 53 53 53 53 52 51 51 51 51 51 51 50 50 50 50 50 48 46 45 44 43 42 41 41 39 38 38 38 39 39 39 39 38 38 38 38 39 40 44 47 50 51 52 54 55 57 58 58 58 59 59 59 59 60 60 60 60 61 61 61 61 61 61 61 62 62 61 61 61 61 61 60 60 60 60 60 60 60 60 60 60
57 57 56 55 55 54 53 53 53 53 53 53 52 52 52 52 52 52 51 52 52 53 53 53 54 54 54 53 52 52 52 51 50 50 49 49 49 49 49 47 46 44 43 42 42 41 41 40 39 39 39 39 39 39 39 39 39 39 39 40 41 43 46 48 49 50 52 55 56 57 58 59 59 59 59 60 60 60 60 60 61 61 61 61 61 61 61 62 62 62 61 61 61 61 61 61 60 60 60 60 60 60 60
57 57 56 55 55 54 53 53 53 53 53 52 52 52 52 52 52 52 52 52 52 53 53 53 53 54 54 53 53 53 53 52 50 49 48 48 48 48 48 48 47 46 44 43 42 41 41 40 40 39 39 39 39 40 40 40 40 39 39 40 41 41 44 46 46 47 47 50 53 55 56 57 58 59 59 59 60 60 60 60 60 60 61 61 61 61 61 61 62 62 62 61 61 61 61 61 61 61 61 61 61 61 61
57 57 56 56 55 54 53 53 53 53 53 52 52 52 52 52 52 52 52 52 52 52 53 53 53 53 53 53 53 53 53 52 51 50 49 47 47 47 48 49 48 47 46 45 43 42 41 41 40 40 39 39 39 40 40 40 40 40 40 40 40 41 41 43 45 45 45 46 48 51 54 55 57 58 59 59 59 59 60 60 60 60 60 60 60 61 61 61 61 61 62 61 61 61 61 61 61 61 61 61 61 61 61
57 57 56 56 55 55 54 53 53 53 52 52 52 52 52 52 52 52 52 52 52 52 53 53 53 53 53 53 53 53 53 53 52 50 49 48 47 47 47 48 48 48 47 46 45 44 43 42 41 40 40 40 40 40 40 40 40 40 40 40 40 40 41 43 45 45 43 44 45 47 51 54 55 56 57 58 58 59 59 59 59 59 60 60 60 60 60 60 60 61 61 61 61 61 61 61 61 61 61 61 61 61 61
56 56 56 56 55 55 54 53 53 52 52 52 52 52 52 52 52 52 52 52 52 52 53 53 53 53 52 52 53 53 53 53 52 51 50 49 48 48 47 48 48 48 48 48 47 46 45 44 43 42 41 41 40 40 40 39 39 40 40 40 40 40 42 43 43 42 41 42 43 45 47 52 54 55 56 57 57 58 58 59 59 59 59 59 60 60 60 60 60 60 61 61 61 61 61 61 61 61 61 61 61 61 61
56 56 56 56 55 55 55 54 53 52 52 52 52 52 52 52 52 52 52 52 52 52 52 53 53 52 52 52 52 52 52 52 52 52 51 50 49 49 48 48 48 48 48 48 48 47 47 46 46 46 45 43 41 41 40 40 39 39 39 39 40 40 41 41 41 40 40 41 42 43 44 48 52 55 55 56 56 57 58 58 59 59 59 59 59 60 60 60 60 61 61 61 61 61 61 61 61 61 61 61 61 61 61
56 56 55 55 55 55 55 54 54 53 52 52 52 52 52 52 52 52 52 52 52 52 52 52 52 52 52 52 52 52 52 52 52 52 51 50 50 49 49 48 48 48 48 48 48 48 48 48 48 49 48 46 44 43 42 41 40 40 40 40 40 40 40 40 40 39 39 39 40 41 42 44 48 52 55 55 56 56 56 57 58 59 59 59 59 60 60 60 60 61 61 61 61 61 61 61 61 61 60 60 60 60 60
56 56 55 55 55 55 55 55 54 53 53 53 52 52 52 52 52 52 52 52 52 52 51 52 52 52 52 52 52 52 51 51 51 51 51 50 50 49 49 49 48 48 48 48 48 48 48 49 49 49 48 47 46 46 44 44 43 41 41 41 40 40 40 40 40 39 39 39 40 40 41 41 44 47 52 54 55 55 55 56 57 57 58 59 59 59 59 60 60 60 61 61 61 61 61 61 61 61 61 60 60 60 60
56 55 55 55 55 55 55 55 55 54 54 53 52 52 52 52 52 52 52 52 52 52 51 51 52 52 52 52 52 52 52 51 51 51 51 50 50 49 49 49 49 49 48 48 48 48 48 49 49 49 49 48 48 47 47 47 46 45 43 42 41 41 40 40 39 39 39 39 40 40 41 41 41 43 47 50 51 52 52 54 55 56 57 58 58 59 59 59 59 60 60 60 61 61 61 61 61 61 61 61 60 60 60
56 55 55 55 55 55 55 55 55 55 54 53 53 52 52 52 52 52 52 52 52 52 52 51 51 51 52 53 53 52 52 52 52 51 51 50 50 50 50 50 50 49 49 49 49 49 50 50 49 49 49 49 49 48 48 49 48 47 46 45 43 42 41 40 39 39 39 40 40 40 40 40 41 41 43 46 48 50 50 52 54 56 56 57 57 58 58 58 59 59 59 60 60 60 61 61 61 61 61 60 60 60 60
56 55 55 55 55 55 55 55 55 55 55 54 53 52 52 52 52 52 52 52 52 52 53 53 52 51 51 52 52 52 52 52 52 51 51 50 50 50 50 50 50 50 50 50 50 50 51 50 50 50 50 50 49 49 49 49 49 48 47 47 46 44 42 41 40 39 39 40 40 40 40 40 40 41 42 43 45 46 47 48 50 54 56 56 57 57 57 58 58 58 59 59 60 60 60 60 61 61 61 60 60 60 61
56 56 55 55 55 55 54 55 55 55 55 54 53 53 52 52 52 52 53 53 52 52 52 53 53 52 51 51 51 52 52 52 52 52 51 50 50 50 50 50 50 50 50 50 50 51 52 51 50 50 50 50 50 50 50 50 49 49 49 48 47 46 45 43 42 41 40 40 40 40 40 40 41 41 41 42 43 43 44 45 46 49 53 55 56 56 57 57 57 58 58 59 59 59 60 60 60 60 61 61 61 61 61
56 56 55 55 55 55 54 54 55 55 55 55 54 54 53 53 53 53 53 53 52 52 52 53 53 52 51 51 51 51 52 52 52 52 51 50 50 50 49 49 49 49 49 50 50 50 51 50 50 50 50 50 50 50 49 49 49 49 49 49 48 47 46 45 44 43 41 40 39 39 40 40 41 41 41 42 42 42 42 42 43 45 48 50 53 55 55 55 56 57 57 58 59 59 59 59 60 60 61 61 61 61 61
56 56 55 55 55 55 55 54 55 55 55 55 55 54 54 54 54 54 53 52 52 52 52 52 53 53 52 51 51 51 51 52 52 52 51 50 50 50 49 49 49 48 48 48 49 49 50 49 49 49 49 49 49 49 49 49 49 49 49 49 48 48 47 47 46 45 43 41 40 39 39 39 40 41 41 41 41 41 41 41 41 42 43 45 47 50 51 52 53 55 56 57 58 58 58 59 59 60 61 61 61 61 61
57 56 56 56 55 55 55 55 55 55 55 55 55 55 54 54 53 53 53 53 52 52 52 52 52 52 53 52 52 52 51 52 52 51 51 50 50 50 50 50 49 48 47 47 47 47 48 48 48 48 49 49 49 49 49 49 49 49 49 49 49 48 48 48 47 46 45 43 41 40 40 39 39 40 40 41 41 40 40 40 40 40 41 41 44 46 49 50 51 52 54 56 57 57 58 58 59 60 61 61 61 61 61
57 57 57 56 56 56 56 55 55 55 55 55 55 55 55 54 54 54 53 53 53 52 52 52 52 52 52 53 53 53 53 52 52 51 51 51 50 50 50 49 48 48 47 46 46 46 46 46 46 47 47 48 49 49 49 50 50 50 50 49 49 48 48 48 47 46 46 44 43 42 41 41 40 40 40 40 40 40 40 39 39 40 40 40 41 43 45 47 50 51 52 54 55 56 57 57 58 59 60 61 61 61 61
58 57 57 57 56 56 56 56 55 55 55 55 55 55 55 55 54 54 54 54 53 53 53 53 53 52 52 52 52 52 53 53 53 52 52 51 50 50 49 49 48 48 47 46 46 45 45 45 45 45 46 47 48 49 49 50 50 50 50 49 49 48 48 47 47 46 45 44 44 43 42 41 41 41 40 40 40 40 39 39 39 39 39 39 40 41 42 45 47 50 50 51 53 54 55 56 57 58 59 61 61 62 62
59 58 58 57 57 57 56 56 56 56 55 55 55 55 55 55 55 54 54 54 54 54 53 53 53 52 52 52 52 52 52 53 53 53 52 52 51 50 50 49 49 48 47 46 46 45 45 46 45 45 45 46 46 47 48 49 50 50 50 50 49 48 47 46 46 45 44 44 43 42 41 41 41 40 40 39 40 40 39 40 40 39 39 39 40 41 43 46 47 48 48 49 50 52 53 55 56 57 58 59 60 61 62
59 59 58 58 57 57 57 57 56 56 56 56 55 55 55 55 55 55 55 55 54 54 54 53 53 53 52 52 52 52 52 52 53 53 53 52 52 52 51 50 48 47 46 45 45 45 45 45 45 44 44 45 45 45 46 47 48 49 50 50 49 47 46 46 45 44 43 43 42 41 41 41 40 39 39 39 39 39 40 40 40 39 39 39 40 41 41 43 44 45 46 46 48 50 52 54 55 56 57 58 59 60 61
59 59 59 58 58 58 57 57 57 57 56 56 56 55 55 55 55 55 55 55 55 55 54 54 54 53 53 53 53 52 52 52 53 54 54 53 53 53 52 51 50 48 46 45 44 44 44 44 42 42 42 44 45 45 45 46 47 48 49 48 48 47 46 45 44 43 43 42 41 41 41 41 40 39 38 38 38 39 39 39 40 40 40 40 40 40 40 41 43 44 45 45 46 48 51 53 55 55 56 57 58 59 59
59 59 59 59 58 58 58 58 58 57 57 57 57 56 56 55 55 55 55 55 55 55 55 55 54 54 54 54 54 53 52 52 52 53 54 54 53 53 53 52 52 51 49 48 46 46 46 46 45 44 43 44 45 46 46 45 46 46 47 47 46 46 45 44 43 43 42 41 41 41 41 41 41 40 39 38 38 39 39 39 40 41 41 41 41 41 40 41 43 45 44 45 46 48 51 53 54 55 55 56 56 57 58
59 59 59 59 59 59 58 58 58 58 58 58 57 57 56 56 56 55 55 55 55 55 55 55 55 55 55 55 54 54 53 52 52 52 53 53 53 53 53 53 52 52 51 50 50 49 48 47 46 46 46 45 45 45 46 46 46 45 46 46 45 45 44 43 42 42 42 41 41 41 41 41 41 41 41 40 40 40 40 40 41 41 42 42 41 41 42 44 45 46 46 47 48 49 50 52 54 55 55 55 56 56 57
59 59 59 59 59 59 59 59 58 58 58 58 58 58 57 57 56 56 56 56 56 56 56 55 55 55 55 55 55 54 53 53 53 53 53 52 53 53 54 53 53 52 52 51 51 50 50 49 48 48 47 46 45 45 45 46 46 46 46 46 45 44 44 43 42 42 42 42 42 41 41 41 42 42 42 42 42 42 42 42 42 43 43 43 43 42 43 43 44 46 47 48 49 50 51 52 54 54 55 55 55 56 57
59 59 59 59 59 59 59 59 59 59 59 59 59 58 58 58 57 57 57 57 56 56 56 56 56 56 56 55 55 55 55 54 54 54 53 53 52 53 54 54 53 53 53 52 52 51 51 51 50 50 49 48 47 46 46 46 46 46 46 46 46 45 44 43 43 43 42 42 42 42 42 42 43 43 43 44 44 44 44 44 44 44 44 44 44 43 44 44 44 45 46 46 49 50 52 53 54 54 55 55 56 56 57